www.pogodaiklimat.ru

Погода и климат >> Архив погоды >> Буркина-Фасо >> По


ПОГОДА в По

  • Прогноз погоды в По
  • Монитор погоды в По

АРХИВ ПОГОДЫ в По

Время (UTC), дата Ветер
(напр.,м/с)
 
Видим.   Явления Облачность Т
(С)
Тd
(С)
f
(%)
Тe
(С)
Тes
(С)
Комфортность P
(гПа)
Po
(гПа)
Тmin
(С)
Tmax
(С)
R
(мм)
R24
(мм)
S
(см)
09 9.09 10 км н/о +23.8 +21.9 89 +31 +31 очень
душно
1015.9 979.4
12 9.09 В 3 10 км {дождь} 9/1 600 м
[Cu Sc Ac trans Cs]
+26.8 +21.8 74 +34 +43 очень
душно
1012.8 976.6 0.5
15 9.09 В 3 10 км 9/4 600 м
[Cu Sc Ac trans Ci sp]
+28.6 +22.9 71 +38 +41 очень
душно
1010.2 974.1
18 9.09 Ю 1 10 км 9/1 800 м
[Cb cap Ac trans Ci sp]
+27.5 +24.1 82 +38 +38 очень
душно
1010.3 974.1 +29.0 0.5
21 9.09 ЮЗ 1 10 км 9/0
[Ac trans Ci sp]
+24.9 +23.6 92 +34 +34 очень
душно
1012.0 975.7
00 10.09 штиль 0 10 км в посл. час дождь 9/0
[Ac As Ci sp]
+24.6 +24.0 96 +34 +34 очень
душно
1012.5 976.3 0.3
03 10.09 ЮВ 1 10 км в посл. час дождь 9/1 400 м
[Frnb Ac As]
+24.6 +24.0 96 +34 +34 очень
душно
1011.6 975.6
06 10.09 ЮВ 1 10 км гроза без осадков 9/3 600 м
[Cb cap Ac As Ci sp]
+23.1 +22.4 96 +32 +32 очень
душно
1012.3 976.1 +23.1 6
09 10.09 Ю 2 10 км {гроза} 9/1 600 м
[Sc Ac trans Ci sp]
+25.8 +23.7 88 +35 +40 очень
душно
1013.8 977.6
12 10.09 Ю 2 10 км {гроза} 9/6 600 м
[Cu Sc Ac trans Ci sp]
+29.3 +24.4 75 +41 +47 опасность
перегрева
1013.1 977.0
15 10.09 Ю 3 10 км 9/6 600 м
[Cu Sc Ac trans Ci sp]
+29.7 +23.0 67 +40 +42 очень
душно
1010.0 974.0
18 10.09 Ю 2 10 км 9/0
[Ac trans Ci sp]
+26.7 +23.9 85 +37 +37 очень
душно
1009.7 973.6 +30.1
21 10.09 ЮЗ 1 10 км 9/0
[Ci sp]
+25.5 +23.9 91 +35 +35 очень
душно
1010.7 974.6
00 11.09 ЮЗ 1 10 км 9/0
[Ac As]
+24.6 +23.7 95 +33 +33 очень
душно
1010.5 974.6
03 11.09 ЮЗ 1 10 км 9/0
[Ac As]
+24.0 +23.1 95 +32 +32 очень
душно
1009.7 973.8
06 11.09 ЮЗ 1 10 км 9/0
[Ac trans Ci sp]
+23.4 +22.7 96 +33 +33 очень
душно
1010.3 974.2 +23.4
09 11.09 ЮЗ 1 10 км 9/0
[Ac trans Ci sp]
+27.7 +22.0 71 +36 +45 очень
душно
1011.5 975.4
12 11.09 Ю 2 10 км 9/0
[Ac trans Ci sp]
+31.3 +24.6 68 +44 +61 опасность
перегрева
1010.3 974.5
15 11.09 ЮЗ 1 10 км 9/1 600 м
[Cu Sc Ci sp]
+32.9 +23.8 59 +44 +54 опасность
перегрева
1007.7 972.0
18 11.09 Ю 1 10 км 9/1 600 м
[Cu Sc Ac trans Ci sp]
+30.3 +23.8 68 +41 +41 опасность
перегрева
1007.7 971.8 +33.0
21 11.09 СВ 3 10 км гроза, ливневой дождь 10/4 600 м
[Cb cap Ac As]
+21.2 +20.1 93 +26 +26 душно 1013.4 977.0
00 12.09 В 3 10 км гроза, ливневой дождь 10/1 900 м
[Cb cap Ac As]
+22.1 +21.5 96 +29 +29 очень
душно
1012.6 976.6 23
03 12.09 В 2 10 км в посл. час дождь {гроза} 9/4 400 м
[St Ac As]
+22.0 +21.3 96 +29 +29 очень
душно
1008.4 972.6
06 12.09 С 1 10 км {гроза, дождь} 9/1 400 м
[St Ac As Ci sp]
+22.0 +21.3 96 +29 +29 очень
душно
1009.4 973.4 +20.6 25
09 12.09 В 2 10 км 9/5 600 м
[Cu Sc Ac trans Ci sp]
+25.0 +22.1 84 +32 +35 очень
душно
1011.4 975.0
12 12.09 Ю 2 10 км 9/4 600 м
[Cu Sc Ac trans Ci sp]
+28.7 +24.0 76 +40 +47 очень
душно
1010.9 974.7
15 12.09 В 2 10 км 9/6 600 м
[Cu Sc Ac trans Ci sp]
+30.3 +23.5 67 +41 +44 опасность
перегрева
1008.5 972.5
18 12.09 СВ 1 10 км 9/3 600 м
[Cb cap Ac trans Ci sp]
+29.2 +24.7 77 +42 +42 опасность
перегрева
1008.6 972.5 +30.9
21 12.09 В 2 10 км зарница 9/3 600 м
[Cb cap Ac As Ci sp]
+27.2 +24.8 87 +39 +39 очень
душно
1010.3 974.3
00 13.09 Ю 1 10 км 9/0
[Ac As Ci sp]
+25.1 +24.0 94 +35 +35 очень
душно
1010.6 974.6
03 13.09 Ю 1 10 км 9/5 600 м
[Sc Ac trans Ci sp]
+24.5 +23.8 96 +33 +33 очень
душно
1010.4 974.5
06 13.09 В 1 10 км 9/6 600 м
[Sc Ac trans Ci sp]
+23.9 +23.3 96 +32 +32 очень
душно
1011.0 975.0 +23.8
09 13.09 Ю 2 10 км 9/5 600 м
[Sc Ac trans Ci sp]
+26.9 +23.6 82 +37 +40 очень
душно
1013.4 977.4
12 13.09 Ю 2 10 км 9/5 600 м
[Cu Sc Ci sp]
+29.8 +24.8 75 +43 +52 опасность
перегрева
1012.1 976.2
15 13.09 Ю 2 10 км 9/4 600 м
[Cu Sc Ac trans Ci sp]
+30.3 +25.0 73 +43 +47 опасность
перегрева
1010.9 975.0
18 13.09 Ю 1 10 км 9/1 600 м
[Cb cap Ac trans Ci sp]
+29.5 +25.3 78 +43 +43 опасность
перегрева
1010.1 974.2 +31.2
21 13.09 штиль 0 10 км 9/0
[Ac trans Ci sp]
+26.1 +24.8 93 +37 +37 очень
душно
1011.5 975.5
00 14.09 штиль 0 10 км 9/0
[Ac trans Ci sp]
+25.4 +24.7 96 +36 +36 очень
душно
1011.4 975.5
03 14.09 ЮЗ 1 10 км 9/0
[Ac trans Ci sp]
+25.0 +23.6 92 +34 +34 очень
душно
1010.6 974.8
06 14.09 ЮЗ 1 10 км 9/0
[Ac trans Ci sp]
+24.5 +23.2 92 +33 +33 очень
душно
1010.8 974.9 +24.5
09 14.09 Ю 2 10 км 9/0
[Cs]
+29.1 +24.6 77 +41 +50 опасность
перегрева
1011.8 975.9
12 14.09 ЮВ 1 10 км 9/4 600 м
[Cu Sc Cs]
+31.7 +24.9 67 +45 +58 опасность
перегрева
1011.0 975.3
15 14.09 Ю 2 10 км 9/4 600 м
[Cu Sc Ac trans Ci sp]
+32.7 +24.8 63 +46 +50 опасность
перегрева
1008.1 972.4
18 14.09 Ю 1 10 км 9/3 600 м
[Cb cap Ac trans Ci sp]
+30.9 +25.8 74 +46 +46 опасность
перегрева
1008.6 972.8 +33.2
21 14.09 Ю 1 10 км гроза без осадков 9/5 600 м
[Cb cap Ac As]
+25.0 +21.8 82 +32 +32 очень
душно
1013.0 977.0
00 15.09 Ю 1 10 км в посл. час гроза {дождь} 9/1 600 м
[Sc Ac trans Cs]
+23.1 +21.8 92 +31 +31 очень
душно
1010.6 974.7 1
03 15.09 ЮЗ 2 10 км 9/0
[Ac As]
+23.0 +21.2 90 +31 +31 очень
душно
1009.2 973.4
06 15.09 Ю 2 10 км 9/0
[Ac trans Ci sp]
+23.3 +21.8 91 +32 +32 очень
душно
1009.7 973.8 +22.5 1
09 15.09 Ю 1 10 км 9/0
[Ac As Cs]
+25.7 +23.1 86 +34 +39 очень
душно
1011.1 974.9
12 15.09 В 8 10 км слаб. дождь 10/3 600 м
[Cb cap Ac As]
+21.9 +20.8 93 +28 +29 душно 1014.3 977.7 4
15 15.09 Ю 1 10 км слаб. дождь 10/0
[Ac As]
+22.1 +21.4 96 +29 +33 очень
душно
1011.1 974.6
18 15.09 СЗ 1 10 км {дождь} 9/0
[Ac As]
+22.2 +21.3 95 +29 +29 очень
душно
1009.1 972.8 +28.6 9
21 15.09 В 1 10 км 9/0
[Ac As Ci sp]
+21.9 +21.5 98 +28 +28 душно 1009.9 973.6
00 16.09 штиль 0 10 км 9/0
[Ac As Ci sp]
+22.2 +21.9 98 +29 +29 очень
душно
1010.9 974.3

 

Местоположение метеостанции По (Буркина-Фасо): широта 11.15 долгота -1.15 высота над уровнем моря 322 м.

В архиве по умолчанию представлена погода в По за последнюю неделю. Архивные данные за месяц целиком и за предыдущие месяцы, начиная с января 2011 года, Вы можете получить, выбрав интересующий диапазон дат из раскрывающегося списка и нажав кнопку "Ввод!".


*Определитесь, кто Вы:
робот инопланетянин человек

Внимание! Время в таблицах - всемирное. Для получения местного времени необходимо прибавить поправку, которая равна 0 ч.

Смотрите также архив погоды в соседних городах и на ближайших метеорологических станциях:

Погода в Навронго (Гана) (28 км)
Погода в Уагадугу (Буркина-Фасо) (139 км)
Погода в Дапаоне (Того) (167 км)
Погода в Тамале (Гана) (186 км)
Погода в Ва (Гана) (192 км)
Погода в Фада-Нгурме (Буркина-Фасо) (192 км)
Погода в Манго (Того) (197 км)
Погода в Боромо (Буркина-Фасо) (205 км)
Погода в Йенди (Гана) (226 км)
Погода в Гауа (Буркина-Фасо) (240 км)

Пояснения к столбцам:

Ветер - указаны скорость ветра в м/с - средняя за 10 мин, порывы в срок и между сроками (в фигурных скобках) и направление, откуда дует ветер: С - северный, СВ - северо-восточный, В - восточный, ЮВ - юго-восточный, Ю - южный, ЮЗ - юго-западный, З - западный, СЗ - северо-западный.
Видимость - горизонтальная дальность видимости в метрах или километрах. При видимости от 1 до 10 км при отсутствии осадков обычно наблюдается дымка, при ухудшении видимости до 1 км и менее - туман. В сухую погоду видимость может ухудшаться дымом, пылью или мглою.
Явления - указаны атмосферные явления, наблюдавшиеся в срок или в последний час перед сроком; фигурными скобками обозначены явления, наблюдавшиеся между сроками (за 1-3 часа до срока); квадратными скобками обозначены град или гололедные отложения с указанием их диаметра в мм.
Облачность - указаны через наклонную черту общая и нижняя облачность в баллах и высота нижней границы облаков в метрах; квадратными скобками обозначены формы облаков: Ci - перистые, Cs - перисто-слоистые, Cc - перисто-кучевые, Ac - высококучевые, As - высокослоистые, Sc - слоисто-кучевые, Ns - слоисто-дождевые, Cu - кучевые, Cb - кучево-дождевые. Подробнее классификацию облаков см. в Атласе облаков (PDF).
T - Температура воздуха - температура, измеренная на высоте 2 м над землей.
Td - Температура точки росы - температура, при понижении до которой содержащийся в воздухе водяной пар достигнет насыщения.
f - Относительная влажность воздуха - влажноcть воздуха, измеренная на высоте 2 м над землей.
Te - Эффективная температура - температура, которую ощущает одетый по сезону человек в тени. Характеристика душности погоды. При расчете учитывается влияние влажности воздуха и скорости ветра на теплоощущения человека.
Tes - Эффективная температура на солнце - температура, которую ощущает человек, с поправкой на солнечный нагрев. Характеристика знойности погоды. Зависит от высоты солнца над горизонтом, облачности и скорости ветра. Ночью, в пасмурную погоду, а также при ветре 12 м/с и более поправка равна нулю.
P - Атмосферное давление - приведенное к уровню моря атмосферное давление.
Po - Атмосферное давление - измеренное на уровне метеостанции атмосферное давление.
Tmin - Минимальная температура - минимум температуры воздуха на высоте 2 м над землей.
Tmax - Максимальная температура - максимум температуры воздуха на высоте 2 м над землей.
R - Количество осадков - Количество выпавших осадков за период времени, мм. При наведении курсора мыши на число - период времени, за который выпало указанное количество осадков.
R24 - Количество осадков - Количество выпавших осадков за 24 часа, мм.
S - Снежный покров - Высота снежного покрова, см. При наведении курсора мыши на число - состояние снежного покрова и степень покрытия местности в баллах.